| time (UTC) | temp F | wind direction | speed MPH | gust MPH | rain 1hr in | rain 24hr in | rain mn in | humidity % | barometer mb |
| 20260503200027 | 77 | 348 | 1.0 | 3.0 | 0.00 | 0.00 | 0.00 | 40 | 1018.7 |
| 20260503195021 | 76 | 1 | 2.0 | 5.0 | 0.00 | 0.00 | 0.00 | 39 | 1018.9 |
| 20260503194019 | 76 | 5 | 3.0 | 8.0 | 0.00 | 0.00 | 0.00 | 40 | 1019.1 |
| 20260503193019 | 77 | 7 | 4.0 | 9.0 | 0.00 | 0.00 | 0.00 | 39 | 1019.4 |
| 20260503192028 | 77 | 359 | 2.0 | 5.0 | 0.00 | 0.00 | 0.00 | 41 | 1019.5 |
| 20260503191039 | 77 | 5 | 2.0 | 6.0 | 0.00 | 0.00 | 0.00 | 42 | 1019.7 |
| 20260503190019 | 77 | 347 | 1.0 | 4.0 | 0.00 | 0.00 | 0.00 | 43 | 1019.9 |
| 20260503185019 | 76 | 2 | 2.0 | 6.0 | 0.00 | 0.00 | 0.00 | 39 | 1019.9 |
| 20260503184020 | 76 | 353 | 2.0 | 7.0 | 0.00 | 0.00 | 0.00 | 40 | 1020.2 |
| 20260503183017 | 76 | 343 | 1.0 | 4.0 | 0.00 | 0.00 | 0.00 | 41 | 1020.2 |
| 20260503182020 | 75 | 346 | 1.0 | 6.0 | 0.00 | 0.00 | 0.00 | 41 | 1020.3 |
| 20260503181020 | 76 | 358 | 2.0 | 6.0 | 0.00 | 0.00 | 0.00 | 41 | 1020.4 |
| 20260503180020 | 75 | 329 | 1.0 | 4.0 | 0.00 | 0.00 | 0.00 | 41 | 1020.4 |
| 20260503175017 | 74 | 347 | 2.0 | 5.0 | 0.00 | 0.00 | 0.00 | 42 | 1020.5 |
| 20260503174021 | 75 | 4 | 2.0 | 6.0 | 0.00 | 0.00 | 0.00 | 41 | 1020.5 |
| 20260503173021 | 74 | 352 | 1.0 | 7.0 | 0.00 | 0.00 | 0.00 | 42 | 1020.6 |
| 20260503172021 | 73 | 2 | 2.0 | 7.0 | 0.00 | 0.00 | 0.00 | 42 | 1020.7 |
| 20260503171021 | 74 | 355 | 4.0 | 7.0 | 0.00 | 0.00 | 0.00 | 41 | 1020.8 |
| 20260503131039 | 62 | 337 | 2.0 | 5.0 | 0.00 | 0.00 | 0.00 | 67 | 1021.2 |
| 20260503081041 | 49 | 325 | 1.0 | 2.0 | 0.00 | 0.78 | 0.00 | 91 | 1019.2 |
| 20260503072022 | 50 | 311 | 1.0 | 1.0 | 0.00 | 1.15 | 0.00 | 90 | 1018.9 |
| 20260503071024 | 50 | 312 | 1.0 | 2.0 | 0.00 | 1.17 | 0.00 | 90 | 1018.9 |
| 20260503055024 | 49 | 299 | 1.0 | 1.0 | 0.00 | 1.51 | 0.00 | 90 | 1018.6 |
| 20260503054024 | 49 | 295 | 1.0 | 1.0 | 0.00 | 1.59 | 0.00 | 89 | 1018.6 |
| 20260503053025 | 50 | 298 | 1.0 | 1.0 | 0.00 | 1.59 | 0.00 | 88 | 1018.5 |
| 20260503052024 | 50 | 305 | 1.0 | 1.0 | 0.00 | 1.59 | 0.00 | 88 | 1018.6 |
| 20260503051024 | 50 | 301 | 1.0 | 2.0 | 0.00 | 1.59 | 0.00 | 87 | 1018.6 |
| 20260503050024 | 51 | 305 | 0.0 | 1.0 | 0.00 | 1.59 | 0.00 | 86 | 1018.4 |
| 20260503045024 | 52 | 302 | 1.0 | 1.0 | 0.00 | 1.59 | 1.59 | 84 | 1018.3 |
| 20260503044027 | 52 | 310 | 1.0 | 1.0 | 0.00 | 1.59 | 1.59 | 80 | 1018.3 |
| 20260503043045 | 53 | 315 | 1.0 | 1.0 | 0.00 | 1.59 | 1.59 | 79 | 1018.2 |
| 20260503042025 | 54 | 317 | 1.0 | 2.0 | 0.00 | 1.59 | 1.59 | 78 | 1018.1 |
| 20260503041025 | 54 | 315 | 1.0 | 1.0 | 0.00 | 1.60 | 1.59 | 78 | 1018.0 |
| 20260503040025 | 55 | 303 | 1.0 | 2.0 | 0.00 | 1.64 | 1.59 | 77 | 1017.9 |
| 20260503035025 | 56 | 307 | 1.0 | 2.0 | 0.00 | 1.68 | 1.59 | 75 | 1017.8 |
| 20260503034026 | 57 | 305 | 1.0 | 1.0 | 0.00 | 1.73 | 1.59 | 73 | 1017.8 |
| 20260503033026 | 58 | 298 | 1.0 | 2.0 | 0.00 | 1.75 | 1.59 | 72 | 1017.7 |
| 20260503032026 | 59 | 306 | 1.0 | 1.0 | 0.00 | 1.76 | 1.59 | 69 | 1017.6 |
| 20260503031026 | 59 | 321 | 1.0 | 2.0 | 0.00 | 1.77 | 1.59 | 67 | 1017.5 |
| 20260503030027 | 60 | 322 | 1.0 | 2.0 | 0.00 | 1.77 | 1.59 | 67 | 1017.5 |
| 20260503025026 | 61 | 328 | 1.0 | 2.0 | 0.00 | 1.78 | 1.59 | 65 | 1017.4 |
| 20260503024027 | 61 | 336 | 2.0 | 3.0 | 0.00 | 1.80 | 1.59 | 64 | 1017.3 |
| 20260503023027 | 62 | 329 | 1.0 | 2.0 | 0.00 | 1.85 | 1.59 | 63 | 1017.2 |
| 20260503022027 | 62 | 326 | 2.0 | 2.0 | 0.00 | 1.91 | 1.59 | 62 | 1017.1 |
| 20260503021027 | 62 | 325 | 1.0 | 2.0 | 0.00 | 1.97 | 1.59 | 61 | 1017.0 |
| 20260503020027 | 62 | 331 | 2.0 | 4.0 | 0.00 | 2.18 | 1.59 | 62 | 1016.9 |
| 20260503015028 | 62 | 330 | 2.0 | 3.0 | 0.00 | 2.23 | 1.59 | 62 | 1016.7 |
| 20260503014028 | 62 | 319 | 1.0 | 3.0 | 0.00 | 2.34 | 1.59 | 63 | 1016.6 |
| 20260503013028 | 64 | 311 | 1.0 | 2.0 | 0.00 | 2.42 | 1.59 | 60 | 1016.4 |
| 20260503012028 | 64 | 334 | 1.0 | 2.0 | 0.00 | 2.53 | 1.59 | 58 | 1016.2 |
| 20260503011028 | 65 | 328 | 1.0 | 2.0 | 0.00 | 2.56 | 1.59 | 56 | 1016.0 |
| 20260503010028 | 65 | 334 | 2.0 | 3.0 | 0.00 | 2.59 | 1.59 | 55 | 1015.8 |
| 20260503005029 | 66 | 330 | 2.0 | 3.0 | 0.00 | 2.60 | 1.59 | 54 | 1015.6 |
| 20260503004028 | 67 | 333 | 2.0 | 4.0 | 0.00 | 2.69 | 1.59 | 52 | 1015.4 |
| 20260503003029 | 67 | 329 | 2.0 | 4.0 | 0.00 | 2.83 | 1.59 | 51 | 1015.1 |
| 20260503002029 | 68 | 342 | 3.0 | 5.0 | 0.00 | 2.98 | 1.59 | 52 | 1015.0 |
| 20260503001029 | 69 | 344 | 2.0 | 3.0 | 0.00 | 3.10 | 1.59 | 52 | 1014.8 |
| 20260503000031 | 69 | 359 | 3.0 | 5.0 | 0.00 | 3.13 | 1.59 | 53 | 1014.6 |
| 20260502235032 | 70 | 347 | 2.0 | 3.0 | 0.00 | 3.18 | 1.59 | 52 | 1014.4 |
| 20260502234019 | 70 | 340 | 3.0 | 7.0 | 0.00 | 3.28 | 1.59 | 51 | 1014.1 |
| 20260502233100 | 71 | 339 | 2.0 | 4.0 | 0.00 | 3.32 | 1.59 | 52 | 1013.9 |
| 20260502232030 | 71 | 0.0 | 0.0 | 0.00 | 3.42 | 1.59 | 52 | 1013.8 | |
| 20260502231019 | 72 | 334 | 2.0 | 7.0 | 0.00 | 3.47 | 1.59 | 53 | 1013.8 |
| 20260502230110 | 72 | 347 | 2.0 | 4.0 | 0.00 | 3.51 | 1.59 | 53 | 1013.8 |
| 20260502225020 | 72 | 330 | 2.0 | 5.0 | 0.00 | 3.51 | 1.59 | 54 | 1013.7 |
| 20260502224020 | 73 | 349 | 2.0 | 6.0 | 0.00 | 3.51 | 1.59 | 55 | 1013.6 |
| 20260502223100 | 73 | 349 | 4.0 | 9.0 | 0.00 | 3.51 | 1.59 | 56 | 1013.5 |
| 20260502222040 | 72 | 350 | 3.0 | 7.0 | 0.00 | 3.51 | 1.59 | 56 | 1013.6 |
| 20260502221017 | 72 | 353 | 4.0 | 10.0 | 0.00 | 3.51 | 1.59 | 56 | 1013.4 |
| 20260502220017 | 73 | 356 | 3.0 | 7.0 | 0.00 | 3.51 | 1.59 | 57 | 1013.4 |
| 20260502215020 | 73 | 351 | 2.0 | 10.0 | 0.00 | 3.51 | 1.59 | 58 | 1013.2 |
| 20260502214021 | 73 | 334 | 2.0 | 5.0 | 0.00 | 3.51 | 1.59 | 58 | 1013.2 |
| 20260502213018 | 73 | 345 | 2.0 | 6.0 | 0.00 | 3.51 | 1.59 | 58 | 1013.2 |
| 20260502212018 | 72 | 353 | 3.0 | 9.0 | 0.00 | 3.51 | 1.59 | 59 | 1013.2 |
| 20260502211018 | 72 | 349 | 3.0 | 10.0 | 0.00 | 3.51 | 1.59 | 61 | 1013.1 |
| 20260502210042 | 73 | 352 | 3.0 | 8.0 | 0.00 | 3.51 | 1.59 | 60 | 1013.2 |
| 20260502205022 | 73 | 340 | 2.0 | 7.0 | 0.00 | 3.51 | 1.59 | 60 | 1013.2 |
| 20260502204019 | 73 | 354 | 3.0 | 11.0 | 0.00 | 3.51 | 1.59 | 61 | 1013.3 |
| 20260502203021 | 73 | 346 | 3.0 | 8.0 | 0.00 | 3.51 | 1.59 | 60 | 1013.3 |
| 20260502202020 | 72 | 342 | 2.0 | 5.0 | 0.00 | 3.51 | 1.59 | 62 | 1013.3 |
| 20260502201019 | 72 | 348 | 3.0 | 8.0 | 0.00 | 3.51 | 1.59 | 62 | 1013.4 |